Find Kosmos-2144

NORAD ID: 21300 Int'l Des: 1991-033 Owner: UNKSR Country: SU operational
LEOCIRCULARPOLAR

实时位置

正在加载3D地球...

关于 Kosmos-2144

正在加载描述...

即将过境

Passes for default location (London). Set your location on the main map for personalized predictions.

高度历史

Loading altitude history...

两行轨道根数

1 21300U 91033B 26104.43627527 .00000015 00000-0 24957-4 0 9998
2 21300 82.5827 10.0705 0003888 257.2871 102.7786 12.62390855608413
Epoch: Apr 14, 2026 • Age: 22 hours

当前状态

高度 1427.1 km
速度 7.15 km/s
星下点 66.89°N, 151.45°W
发射日期 May 16, 1991
运行时间 34.9 years
类型 other

技术详情

分类 Payload
质量 225.00 kg
干质量 225.00 kg
总质量 225.00 kg
长度 1.60 m
直径 0.80 m
跨度 7.00 m
形状 Cyl + Ant
制造商 NPOPM
平台类型 Strela-3
阶段状态 In Orbit
所有者/国家 UNKSR/SU

Most Searched